GFSNGP_sfc_rhum_099.txt.gz
RH
83 66 71 75 77 84 93 99 99 96 87 86 84 78 78 73 71 71 73 75 79 83 87 86 87 86 84 84 87 88 93 88 93 88 87 88 94 95 94 94 93 92 93 96
98 88 86 99 84 90 93 84 86 76 80 74 70 72 76 77 73 76 77 78 81 83 84 88 88 90 87 87 88 86 89 94 92 90 88 91 94 95 96 95 94 94 95 94
98 83 80 95 83 73 78 76 70 91 82 74 81 83 89 85 80 82 82 83 85 86 87 89 92 90 91 88 84 87 88 88 90 91 92 93 90 91 93 96 92 94 94 92
81 66 89 90 67 73 85 80 72 74 77 84 87 89 86 87 85 86 85 87 86 88 89 91 91 90 88 84 86 87 91 90 88 90 91 92 92 94 95 94 95 95 95 95
79 95 83 67 68 80 87 95 81 84 78 85 86 73 90 88 87 94 96 95 96 94 93 91 92 93 89 89 88 89 92 92 91 90 91 91 94 95 94 94 95 95 94 94
72 87 92 86 72 61 66 97 84 80 82 79 76 91 97 94 93 94 95 96 96 96 89 92 95 89 92 96 91 95 97 93 90 91 90 94 94 95 94 93 94 92 94 95
92 94 85 85 72 59 85 100 91 83 89 93 94 96 97 93 93 95 97 97 96 93 95 97 97 90 95 94 96 97 96 94 95 94 95 92 93 92 93 94 92 94 94 95
89 89 87 84 65 85 99 96 92 93 96 97 97 96 96 96 96 96 96 96 96 95 95 95 96 95 93 96 98 97 96 95 96 97 95 93 94 93 92 91 93 94 94 93
93 94 95 84 92 91 89 94 95 92 92 94 95 96 96 96 93 95 96 96 96 96 92 92 93 95 94 98 97 97 95 96 96 96 96 97 96 95 93 93 91 93 92 94
92 93 91 90 81 84 91 96 94 93 92 91 95 96 96 94 95 95 93 93 92 89 91 94 94 93 97 97 97 97 95 96 96 95 95 96 94 94 95 96 96 96 95 96
96 92 87 89 93 93 92 93 93 96 96 96 92 95 93 94 94 92 91 89 87 90 89 93 94 94 95 96 95 96 96 97 96 94 95 95 95 95 94 96 96 95 96 96
100 94 92 96 95 91 93 94 94 91 91 92 90 91 81 81 72 71 75 74 75 76 78 81 83 90 82 85 83 88 92 94 96 97 96 94 93 93 94 94 95 94 94 94
95 91 92 96 96 87 93 94 95 90 81 84 74 75 68 76 71 68 65 67 71 72 71 76 81 86 88 78 85 84 87 87 87 88 89 95 96 93 94 95 93 93 94 94
88 82 92 95 98 87 86 87 81 73 71 68 64 64 67 69 69 74 74 69 70 75 78 77 81 90 90 91 84 88 93 92 92 94 94 92 93 93 93 94 95 95 89 84
90 80 86 83 82 73 60 62 71 74 73 74 74 75 72 77 83 86 85 74 72 79 85 87 84 87 85 84 89 85 86 89 93 94 92 93 92 91 90 90 92 93 89 88
74 56 55 59 59 58 61 66 79 80 78 76 74 72 75 78 82 82 81 83 88 96 93 92 86 86 82 84 90 90 89 84 87 91 92 91 92 90 88 89 90 92 91 94
70 68 67 71 71 72 73 72 73 73 70 71 77 75 77 76 83 90 95 88 89 92 90 89 96 89 87 85 90 93 94 92 89 88 87 92 90 90 90 90 89 87 92 91
63 69 68 70 75 77 78 72 69 68 76 76 92 93 95 96 98 97 95 94 96 92 92 89 88 85 84 84 86 88 89 90 88 93 92 92 92 93 93 95 96 96 95 91
67 71 72 71 74 77 77 79 87 88 94 95 92 97 99 100 100 100 97 95 98 98 92 89 78 82 84 82 88 87 90 92 90 88 88 96 94 93 93 97 97 97 97 97
81 82 81 82 82 86 94 98 96 96 97 95 97 98 98 99 100 99 98 95 95 95 94 87 80 77 79 80 96 84 88 93 93 95 95 96 98 99 97 98 97 96 98 99
96 94 95 95 96 96 97 98 96 98 98 99 97 100 100 97 96 98 96 98 89 91 87 80 78 81 77 83 88 95 93 94 95 96 96 97 96 97 97 99 97 98 99 98
96 96 97 97 96 99 98 97 96 98 96 97 99 100 100 98 99 95 94 94 93 88 92 91 88 90 83 98 97 97 95 95 97 97 98 98 99 99 99 97 98 100 98 98
96 96 95 96 96 96 97 96 97 95 97 95 98 95 95 96 96 97 98 81 87 84 94 95 90 89 93 97 99 98 98 98 99 99 99 98 100 99 100 96 97 100 99 96
96 94 96 96 94 96 97 95 93 92 92 94 94 90 89 96 100 92 88 86 85 86 93 96 91 88 93 98 99 98 97 99 99 97 96 100 99 98 98 100 99 97 100 99
93 95 96 96 94 93 89 88 84 87 88 80 78 78 77 84 91 95 96 97 98 91 97 98 89 89 97 99 99 99 98 99 99 99 100 100 100 99 100 99 100 100 97 97
88 90 89 85 86 88 85 81 95 95 92 96 98 98 97 96 94 92 95 95 97 94 95 97 98 95 96 98 98 96 97 97 98 98 99 99 100 100 99 98 98 99 99 100
84 88 89 85 82 85 87 87 95 96 97 96 95 96 95 96 96 95 92 94 97 97 97 97 96 97 97 99 95 96 97 97 96 98 97 98 97 96 98 100 100 99 99 99

GFSNGP_sfc_rhum_102.txt.gz
RH
89 73 66 65 92 95 97 99 95 97 94 90 86 81 77 69 68 72 75 76 79 82 85 85 89 87 84 84 86 89 88 91 94 95 94 95 95 95 97 96 95 95 95 97
96 82 79 91 100 84 81 93 96 90 87 77 71 68 75 78 74 78 79 78 79 80 82 87 88 90 87 87 86 85 87 88 88 90 94 95 98 98 96 94 95 94 96 95
98 93 93 91 98 85 82 81 75 86 91 68 77 80 89 87 83 85 84 83 85 87 88 90 90 87 88 87 84 86 89 86 88 89 92 93 90 91 94 97 94 95 95 93
98 94 86 99 95 73 81 82 77 78 90 78 87 93 92 92 87 86 87 88 88 90 89 94 87 86 82 79 84 86 88 89 89 91 91 91 92 94 95 94 96 96 96 95
97 92 96 78 76 88 88 92 87 84 86 91 92 66 91 91 93 95 95 94 96 95 94 91 92 87 83 84 83 86 92 93 94 96 92 91 95 95 94 94 95 96 96 95
95 85 90 88 72 63 70 97 90 82 84 80 82 90 96 94 92 94 96 96 96 95 89 92 96 86 90 90 89 94 95 94 94 95 96 96 94 95 93 92 94 92 94 95
91 89 86 87 72 60 86 97 93 88 91 93 93 97 97 95 94 96 97 96 93 91 95 96 94 88 90 90 95 97 96 95 95 94 96 96 94 94 94 93 92 94 95 95
85 83 83 87 64 81 97 95 94 93 97 96 97 97 97 95 95 94 94 93 92 93 94 93 93 90 92 95 96 96 95 95 96 96 96 97 96 95 95 94 92 93 93 94
92 93 93 89 93 94 90 93 96 92 94 95 95 97 96 96 93 94 95 94 93 93 92 92 92 93 93 97 96 94 92 95 96 96 96 96 96 96 94 96 96 96 94 95
87 96 94 92 91 91 94 96 95 94 95 92 96 95 95 93 93 93 93 93 90 88 92 94 94 93 95 93 94 95 94 95 96 95 95 96 95 95 94 96 96 96 96 96
96 95 91 92 96 94 95 96 96 95 94 95 92 94 94 94 90 90 88 86 85 89 91 93 91 93 92 90 88 91 92 95 94 93 95 95 95 95 95 97 97 96 97 96
94 96 93 96 97 93 96 95 88 89 93 92 91 92 82 79 74 73 74 73 76 75 80 84 85 88 89 86 86 89 91 90 92 93 92 91 92 93 93 94 94 95 96 96
99 94 96 97 97 93 95 95 90 90 86 89 80 68 72 78 73 70 67 70 76 77 75 77 80 85 88 87 81 88 92 90 89 89 89 91 91 90 93 90 87 93 94 94
86 86 95 94 97 93 90 86 84 85 81 68 66 63 64 67 71 76 76 69 68 74 78 79 78 85 87 89 89 91 91 93 95 96 94 92 93 93 93 95 96 95 83 86
91 85 87 88 82 73 65 67 75 77 76 77 73 71 70 81 87 92 90 75 74 82 88 85 81 84 81 82 88 90 86 91 94 95 96 96 92 91 92 93 94 94 91 87
75 77 84 81 69 68 72 75 81 81 75 72 70 73 80 87 93 90 86 85 87 94 90 94 84 88 84 88 92 93 94 88 92 95 95 96 96 93 91 93 94 95 95 97
72 77 75 76 76 76 76 72 70 71 69 74 80 80 75 82 86 92 97 92 92 93 89 91 96 90 89 93 96 96 97 96 98 94 96 97 98 98 97 95 96 97 98 96
64 70 68 73 78 77 74 68 64 64 80 80 93 95 97 97 98 98 97 97 93 91 95 92 95 90 91 94 94 94 96 95 93 96 94 95 97 96 98 98 97 97 98 97
69 75 76 74 75 74 74 76 85 85 93 95 94 98 100 100 100 100 100 98 100 99 94 94 85 92 92 92 92 94 96 97 96 94 95 99 97 97 99 98 98 100 99 97
81 79 78 81 82 84 92 97 94 96 98 98 100 100 100 100 100 100 100 93 95 94 95 91 88 89 87 87 98 87 94 97 94 97 98 98 98 100 100 99 98 98 99 100
96 93 93 91 96 98 97 97 95 98 100 100 96 100 100 100 100 100 100 98 89 95 89 78 82 86 80 96 96 100 98 99 99 99 100 100 100 99 100 100 100 100 100 100
95 94 95 95 95 100 100 98 95 99 98 100 100 100 100 99 100 96 96 94 93 93 94 92 89 89 85 100 97 99 98 98 99 99 99 100 100 100 100 98 100 100 100 100
95 94 96 96 95 96 98 98 99 98 98 98 99 98 95 95 97 98 97 85 89 89 93 96 94 92 94 98 100 100 100 100 100 100 100 100 100 100 100 100 100 100 100 99
96 96 96 97 97 97 97 96 94 92 94 93 95 95 87 98 100 96 95 92 89 89 94 97 97 92 92 99 100 100 100 100 100 99 99 100 100 100 100 100 100 100 100 100
94 95 96 97 94 92 88 86 85 85 89 80 80 79 80 82 92 94 98 95 99 96 95 96 100 96 98 100 100 100 100 100 100 100 100 100 100 100 100 100 99 100 100 99
89 92 91 82 85 89 91 92 97 95 94 99 99 100 98 98 97 92 95 96 95 97 98 95 98 100 98 97 98 99 99 99 100 100 100 100 100 100 100 100 100 100 99 100
87 89 90 92 94 86 89 90 96 97 98 98 96 97 97 98 99 98 98 98 98 98 98 98 98 98 97 97 97 96 97 96 100 100 100 100 100 100 100 100 100 100 100 100

GFSNGP_sfc_rhum_105.txt.gz
RH
85 69 74 96 98 95 97 95 90 97 92 92 85 86 88 81 71 71 74 77 81 83 84 84 85 84 82 83 84 88 89 88 93 92 97 98 97 97 97 97 96 97 97 98
94 79 96 96 92 75 96 96 95 89 88 79 71 69 73 79 77 81 83 82 82 81 82 86 86 86 82 83 86 88 94 90 88 87 87 92 95 98 95 94 92 92 92 93
98 91 80 85 98 94 89 84 73 82 89 74 79 77 88 84 84 87 88 86 87 90 90 92 92 86 84 82 80 84 90 89 89 89 88 90 89 90 94 96 93 95 94 93
97 96 89 98 95 87 87 87 83 86 88 81 87 93 92 93 92 86 86 87 88 90 91 94 84 84 80 76 80 82 87 89 91 88 89 89 90 92 94 94 96 96 96 95
96 90 95 94 79 86 92 90 87 84 88 87 88 86 85 88 92 96 96 95 96 95 94 92 92 86 82 83 81 84 89 90 91 92 92 91 93 95 96 95 95 96 95 95
90 84 91 89 74 66 71 96 89 82 84 82 89 89 97 94 94 94 95 96 96 96 91 93 95 87 90 91 90 93 94 94 90 90 94 96 96 94 96 95 96 93 94 94
85 87 91 88 79 73 88 95 90 86 90 93 94 97 98 94 93 95 96 96 94 93 95 96 93 89 91 90 95 95 92 92 94 93 95 95 96 97 96 96 95 95 94 95
84 82 88 84 67 81 95 95 92 92 95 98 98 97 97 96 96 96 96 94 93 94 95 94 93 90 92 95 94 90 90 91 92 94 95 96 96 96 96 96 95 96 94 93
92 92 94 90 93 96 93 92 96 91 93 95 96 96 96 96 95 95 95 95 92 94 93 93 93 94 94 97 92 89 90 92 92 90 92 94 94 96 95 96 96 96 96 95
88 93 93 90 91 88 93 96 96 94 95 94 96 96 96 95 95 94 92 93 91 91 94 95 94 94 96 94 92 89 91 92 91 91 91 93 92 94 94 95 96 96 96 96
92 94 88 95 96 95 95 95 95 96 96 96 94 96 94 96 94 93 92 90 89 91 92 94 91 93 92 92 90 90 88 91 93 90 91 91 93 95 95 97 97 96 97 96
93 90 91 99 98 91 94 96 91 91 93 95 93 90 83 84 77 74 74 74 80 80 81 83 85 89 88 88 87 90 88 89 93 93 93 91 91 90 86 92 94 94 94 95
96 95 93 97 97 93 95 96 91 89 88 83 74 74 74 80 73 69 69 69 76 78 77 76 77 84 85 86 82 84 92 90 90 87 88 92 92 93 95 85 76 81 87 91
87 84 94 92 97 94 90 93 85 77 69 64 63 59 61 65 71 77 79 69 67 74 77 78 80 90 90 91 88 90 92 94 96 96 94 94 96 96 96 96 96 94 82 85
89 89 85 90 88 87 80 75 77 79 76 75 70 71 72 86 92 95 93 76 73 81 86 82 83 91 89 86 87 91 88 95 97 97 96 94 95 95 95 96 96 95 90 87
81 81 84 83 80 76 75 75 80 78 71 69 73 81 88 92 92 88 88 84 83 92 90 94 87 93 91 92 93 94 97 95 97 98 98 97 96 96 96 96 97 97 96 98
91 93 88 80 79 82 79 74 73 73 74 79 85 79 80 84 89 95 97 93 93 94 91 91 98 95 95 96 97 98 98 97 98 95 97 99 99 98 98 98 98 98 100 99
73 75 72 72 79 77 74 68 66 68 82 85 94 95 96 96 98 98 98 97 93 90 92 96 94 95 94 96 96 96 97 97 96 98 95 98 99 98 98 98 98 98 100 99
71 75 76 72 72 73 73 74 82 85 91 95 94 99 100 100 100 100 100 97 99 100 92 94 93 94 94 95 92 95 97 98 97 97 96 99 99 98 100 100 100 100 99 98
80 77 77 80 81 86 90 97 91 92 98 95 100 100 99 100 100 100 100 94 96 95 95 91 87 88 90 93 98 90 96 98 96 98 98 99 100 100 99 98 98 100 100 100
95 93 93 92 95 95 93 97 95 99 100 100 98 100 100 100 100 100 100 98 88 94 93 80 83 84 82 99 96 100 99 100 100 100 100 100 100 99 100 100 100 100 100 100
95 94 93 94 92 100 100 99 96 100 100 100 100 100 100 99 100 99 96 94 93 94 96 94 92 91 86 99 98 100 99 98 99 100 100 100 100 100 100 100 100 100 100 100
94 92 93 94 92 94 98 99 100 96 98 100 100 99 97 96 97 99 97 86 91 91 87 98 96 98 95 98 100 100 100 100 100 100 100 100 100 100 100 100 100 100 100 100
95 93 97 97 96 96 95 97 95 93 97 93 94 94 91 96 100 97 96 96 93 95 97 96 98 99 99 99 100 100 100 100 100 100 98 100 100 100 100 100 100 100 100 100
93 94 96 97 94 93 87 84 86 87 90 84 83 83 86 85 92 94 97 95 98 97 95 96 97 97 99 99 100 100 100 100 100 100 100 100 100 100 100 100 100 99 100 100
87 87 90 86 86 88 92 92 98 98 98 100 99 100 99 99 97 96 96 96 96 95 97 96 98 99 100 98 98 97 98 98 98 99 100 100 100 100 100 100 100 100 100 100
87 91 93 95 97 97 98 98 98 97 99 98 97 96 98 99 99 99 100 100 100 100 100 100 100 99 98 100 100 99 100 99 99 97 97 97 100 100 100 100 100 100 100 100

GFSNGP_sfc_rhum_108.txt.gz
RH
86 69 72 97 96 92 99 94 96 97 94 94 92 83 88 89 78 80 84 81 82 84 86 84 84 82 79 80 82 84 86 88 93 91 90 94 96 98 99 98 98 97 98 98
92 75 97 95 95 88 88 95 95 92 90 85 86 85 84 82 81 83 86 81 80 81 84 89 87 86 82 82 83 83 90 93 91 91 89 91 92 90 92 91 91 91 93 93
97 88 86 88 97 95 87 84 83 82 88 86 85 82 88 87 87 88 89 87 87 91 93 93 93 90 89 82 85 83 91 97 95 97 98 90 86 88 92 94 92 94 94 93
96 96 91 95 96 78 82 82 80 82 87 87 88 93 92 93 93 87 87 87 87 91 91 93 91 89 84 78 80 85 86 91 94 98 98 93 88 91 92 92 94 95 95 94
97 92 93 94 83 87 91 92 87 86 87 85 89 92 85 88 93 96 96 95 96 95 94 90 92 91 83 85 82 84 89 90 90 90 95 96 94 94 95 91 92 94 93 94
97 79 92 89 77 72 78 95 88 81 83 84 91 89 95 92 94 94 96 96 96 94 88 90 94 90 90 90 89 93 94 94 90 91 92 93 95 96 97 94 95 91 90 91
89 87 89 84 83 81 96 94 90 82 88 91 92 98 98 95 93 95 96 96 94 93 94 95 94 90 92 91 95 95 92 91 92 92 95 97 95 96 94 96 96 96 95 94
82 84 90 82 76 85 97 93 89 90 96 98 98 97 96 96 96 95 96 94 94 94 95 94 93 92 94 96 94 90 89 91 91 92 92 92 92 94 94 93 93 95 96 96
93 92 93 92 93 95 88 92 94 92 93 95 98 97 96 96 94 95 96 96 94 96 93 93 93 94 96 97 93 88 90 91 92 90 92 91 92 92 92 90 91 94 93 95
88 94 92 88 85 92 92 97 96 94 96 92 97 96 97 96 95 94 94 95 93 92 94 95 93 93 96 93 88 89 91 90 92 92 92 92 90 90 90 91 92 92 92 94
93 93 88 91 94 87 95 95 96 95 94 96 92 96 94 96 94 93 92 92 91 92 92 93 91 91 91 90 90 86 90 91 91 90 92 93 94 93 92 95 91 93 95 94
96 88 90 89 98 92 95 97 94 90 93 94 88 89 86 85 77 75 77 78 80 78 79 83 84 88 87 83 83 89 90 89 89 88 92 92 94 92 78 80 80 80 81 86
97 94 93 95 98 94 95 96 91 88 86 82 76 76 76 79 71 69 70 70 76 75 75 80 84 88 90 84 77 84 92 85 80 79 86 92 93 94 96 85 72 77 81 79
88 84 94 94 98 92 92 89 79 73 66 63 63 61 62 68 72 77 81 69 68 74 76 82 88 94 93 92 89 92 94 95 93 91 95 95 96 96 95 96 95 93 82 83
93 88 86 92 89 88 81 76 77 79 75 74 67 72 71 81 90 95 92 73 70 78 85 86 91 95 92 85 87 94 90 96 98 97 96 96 96 95 96 95 95 95 90 90
90 88 86 84 89 84 77 77 79 77 71 72 79 83 85 85 89 90 91 86 82 89 88 96 93 96 93 93 93 94 97 95 96 98 98 97 97 96 96 96 96 97 97 98
88 90 84 85 83 80 80 76 74 75 77 81 87 86 85 89 92 94 96 93 93 95 92 92 100 97 96 96 97 97 98 97 97 95 97 99 99 98 98 98 98 98 100 100
75 76 74 76 81 82 79 75 76 78 88 89 94 94 96 95 98 98 99 97 94 92 95 96 98 96 95 96 95 96 96 96 96 98 97 98 99 98 98 98 97 98 99 98
75 78 78 76 75 75 75 76 84 88 93 96 95 99 100 100 100 100 100 97 99 99 91 94 92 94 96 95 92 94 96 96 96 96 96 98 98 98 100 100 100 100 99 98
78 76 75 77 79 85 89 92 88 91 98 94 100 99 96 100 100 100 100 97 96 95 97 91 86 86 92 93 99 91 97 98 94 97 99 100 100 100 100 99 100 100 100 100
92 91 93 92 94 92 88 90 90 97 100 99 93 98 98 100 100 100 100 98 90 93 95 85 86 86 83 98 96 100 99 100 100 100 100 100 100 100 100 100 100 100 100 100
93 94 94 92 88 98 100 99 94 98 100 100 100 100 100 99 100 99 97 94 95 94 96 97 95 95 86 98 98 100 99 99 100 100 100 100 100 100 100 100 100 100 100 100
94 91 90 89 88 94 99 98 100 96 99 100 100 99 98 96 97 99 97 90 93 96 89 96 99 100 100 98 99 100 100 100 100 100 100 100 100 100 100 100 100 100 100 100
94 91 93 95 94 93 89 97 92 90 97 92 95 94 91 98 97 96 95 99 99 99 98 98 99 99 100 100 100 100 100 100 100 100 100 100 100 100 100 100 100 100 100 100
90 93 95 94 85 85 83 83 86 88 90 84 84 85 86 90 93 96 98 97 100 99 98 98 98 99 99 98 98 98 99 100 98 98 100 100 100 100 100 100 100 100 100 100
84 84 84 80 82 86 90 87 96 97 98 99 99 100 100 99 99 100 99 99 98 99 99 99 99 99 100 100 98 98 98 98 98 98 98 97 97 97 99 100 100 100 100 100
83 85 91 97 98 96 97 98 100 99 100 100 99 99 99 99 100 99 100 100 100 100 100 100 100 100 100 100 100 98 97 97 97 97 99 99 98 98 97 97 98 98 98 98

GFSNGP_sfc_rhum_111.txt.gz
RH
81 62 66 93 89 89 93 81 84 95 90 92 90 85 83 76 74 74 79 81 88 90 91 84 83 81 80 83 85 95 86 89 93 92 90 92 93 93 93 93 92 91 92 91
96 63 84 90 92 93 94 95 92 92 88 74 74 71 77 80 82 78 82 85 86 85 84 87 88 91 85 84 87 83 90 92 88 90 90 92 92 92 92 92 91 90 92 92
89 85 84 93 96 94 94 87 90 83 79 73 76 76 86 83 84 86 86 87 88 89 89 91 92 91 92 90 88 84 90 95 96 93 97 100 90 91 92 96 92 95 93 90
88 95 92 96 93 75 79 80 74 74 76 77 82 87 88 88 88 85 87 87 83 82 83 89 81 86 77 72 83 91 84 90 95 95 95 99 99 97 99 96 97 92 92 90
95 88 91 92 83 88 86 88 83 79 80 81 85 85 85 83 87 92 93 92 94 92 88 86 88 87 78 78 77 80 87 89 92 95 96 96 96 97 97 94 92 92 90 90
87 86 85 80 72 71 78 91 80 76 77 81 80 80 89 88 88 90 93 93 93 92 85 90 94 87 90 88 87 91 94 93 89 88 91 96 97 98 98 94 96 92 92 92
88 80 80 77 76 78 97 94 83 77 82 84 86 87 91 90 89 89 91 93 91 92 95 95 93 90 93 92 96 94 91 89 91 91 92 93 92 93 99 98 95 97 97 96
86 81 85 76 79 86 90 87 83 85 91 95 93 92 92 91 92 90 92 91 92 94 94 94 93 91 92 95 92 90 89 91 92 92 93 91 91 91 90 92 92 92 91 90
88 83 86 88 91 86 75 84 85 84 85 90 92 94 91 92 88 88 91 91 88 94 92 91 92 93 93 96 87 87 88 91 93 91 89 91 91 91 89 90 89 91 89 90
82 88 88 88 86 82 79 89 84 82 84 83 92 90 92 87 85 84 84 86 82 82 89 92 90 91 94 91 90 86 86 88 90 92 91 92 86 86 88 88 90 90 90 89
88 88 82 86 87 88 91 88 88 86 84 87 83 83 80 82 82 83 82 81 80 81 82 85 82 87 89 87 85 84 83 83 85 81 87 84 87 88 86 93 90 90 91 90
86 79 79 88 91 87 88 90 84 83 84 77 72 74 63 62 58 58 61 59 60 63 66 68 68 74 70 67 69 75 74 67 74 73 74 72 73 72 72 74 75 78 76 82
89 82 85 88 89 81 86 87 78 77 73 75 64 57 53 55 54 59 50 52 58 64 64 66 67 70 72 65 64 70 70 64 61 64 64 69 70 70 73 72 67 73 78 76
83 80 93 86 87 83 80 77 70 62 59 57 54 49 49 52 55 58 62 51 51 58 67 71 74 86 85 79 79 84 82 88 73 74 75 76 77 78 77 80 82 81 71 76
86 75 70 78 78 78 68 62 62 61 56 55 53 56 55 66 76 81 76 61 54 59 74 76 78 86 81 73 78 84 73 80 85 84 85 84 80 78 77 77 78 78 72 69
82 79 78 78 79 73 68 65 64 63 58 60 65 65 68 70 72 72 72 70 59 67 80 95 85 90 84 83 82 80 84 87 89 84 85 83 81 78 76 76 76 76 77 78
83 85 78 80 76 72 69 64 61 60 61 65 72 72 71 78 76 78 83 81 79 81 84 92 96 94 93 91 85 80 81 81 90 78 80 80 79 79 74 74 74 73 78 86
63 66 65 68 71 73 73 69 66 64 73 78 92 93 93 88 83 87 88 88 86 83 83 85 92 91 91 87 79 71 71 71 71 76 74 81 77 75 79 76 75 75 77 78
68 69 69 67 68 70 70 73 79 82 90 92 91 92 90 92 91 90 90 88 90 83 80 84 73 85 83 82 70 68 70 73 68 66 70 77 78 76 80 79 79 82 84 81
75 72 72 73 73 80 87 90 88 90 93 91 96 97 96 94 94 94 95 86 81 78 84 75 69 67 74 78 82 62 74 79 71 74 81 76 82 86 86 83 84 83 86 86
90 89 91 90 92 89 86 86 85 89 93 92 90 91 88 93 95 95 92 73 77 82 79 78 66 62 52 61 65 84 83 85 84 85 89 89 88 83 85 87 87 88 89 87
92 92 92 90 87 88 87 86 85 91 92 93 97 97 98 94 96 92 91 77 70 89 69 67 65 78 71 87 67 84 81 80 81 85 86 87 88 90 88 88 89 89 90 91
92 91 90 86 82 86 92 90 92 89 91 93 95 95 90 74 75 79 74 76 70 79 67 71 82 90 92 89 90 92 92 92 92 92 92 93 92 92 92 91 89 90 90 90
91 89 88 88 90 86 85 88 84 82 89 87 90 90 76 80 84 75 75 88 95 92 87 89 91 93 97 94 93 94 93 92 93 93 91 94 93 92 92 93 92 89 90 91
87 85 86 87 74 66 65 67 67 70 71 65 66 69 77 74 90 84 86 86 93 91 91 97 97 95 93 93 93 93 92 92 92 92 91 92 92 92 91 91 92 92 91 91
75 67 64 61 56 58 58 59 66 70 72 82 85 92 94 90 86 87 90 95 90 93 91 92 90 90 91 90 91 91 90 86 88 88 90 90 90 90 89 89 90 90 92 92
68 69 64 67 64 66 71 72 82 88 92 92 89 90 81 87 89 87 98 94 93 93 90 91 92 93 91 92 90 89 88 87 88 89 89 90 90 90 90 90 90 91 91 91

GFSNGP_sfc_rhum_114.txt.gz
RH
71 49 47 70 77 68 92 75 92 95 91 91 89 86 78 82 70 73 78 76 81 87 92 92 92 90 87 87 92 97 88 88 92 91 89 91 93 93 93 93 92 89 88 88
85 58 67 96 86 80 94 80 96 92 86 84 64 70 71 77 78 76 80 83 82 85 86 88 87 92 87 90 93 87 94 96 88 95 91 90 93 92 91 91 90 90 90 90
84 64 81 94 90 94 93 83 88 81 82 75 68 70 82 79 80 84 82 85 83 86 86 88 92 91 91 92 94 92 94 96 95 95 99 98 95 98 95 95 93 94 93 92
78 90 89 99 89 74 75 82 74 76 66 63 72 79 82 81 82 78 80 80 78 78 80 86 75 76 68 63 72 88 89 94 95 95 95 97 96 96 98 97 96 93 95 95
86 70 84 86 84 79 88 86 66 66 67 68 68 65 77 76 82 90 90 87 90 84 82 82 82 78 71 72 70 78 84 88 92 96 97 96 97 98 98 96 95 96 94 95
69 67 72 70 61 60 62 90 69 63 65 68 67 75 86 83 84 85 88 87 87 84 79 87 90 78 90 88 87 91 92 91 86 86 92 95 98 99 99 99 98 95 95 95
70 76 67 62 63 62 94 96 72 64 70 77 79 80 90 85 85 83 84 85 83 85 90 90 89 82 88 91 95 92 91 91 91 91 91 93 94 97 94 94 94 96 98 97
71 73 73 67 69 85 89 77 77 79 90 90 90 89 88 85 82 81 80 80 82 86 90 89 90 88 89 93 87 86 89 91 90 91 91 92 92 95 91 94 94 99 98 90
77 77 76 78 84 73 66 76 78 78 80 86 88 89 87 84 76 78 79 79 76 84 86 88 87 88 90 90 84 82 86 88 87 87 89 89 90 91 87 88 87 88 87 89
78 80 79 79 72 66 66 82 74 74 79 80 88 86 86 78 72 70 69 72 68 67 78 86 85 82 83 82 81 79 81 80 80 82 82 84 82 82 85 88 88 89 89 90
85 81 75 80 83 81 81 80 80 79 79 80 77 80 78 76 75 70 67 66 64 64 63 67 68 71 72 72 70 70 69 74 72 66 72 70 75 73 72 84 81 81 84 86
85 76 76 89 86 77 82 83 76 73 71 64 60 60 50 48 40 36 38 38 38 40 43 43 45 53 48 50 54 60 63 56 61 60 61 59 60 64 66 68 69 72 73 77
83 76 78 83 79 68 75 75 66 63 57 55 40 33 32 33 34 40 30 33 38 42 43 44 46 54 52 50 51 54 59 54 51 54 54 60 62 61 66 66 61 64 67 70
67 70 86 81 81 69 67 65 62 52 48 41 34 31 32 33 34 34 37 34 34 41 47 49 55 70 69 64 66 69 67 68 64 65 67 69 69 70 69 72 76 74 63 64
67 61 62 61 63 62 57 52 53 51 46 39 35 38 39 50 59 66 59 45 40 51 60 59 62 71 62 57 59 70 66 68 71 73 73 72 71 70 69 69 71 70 66 62
64 55 58 63 63 58 53 51 48 47 40 39 40 43 48 51 53 54 54 50 48 65 73 84 73 79 70 69 64 64 70 74 69 71 70 70 69 68 66 66 66 67 70 72
69 72 64 66 62 58 56 49 44 39 41 43 48 49 51 57 60 65 70 63 70 76 73 79 85 86 84 81 70 64 66 66 66 63 63 63 63 64 62 63 64 62 66 80
55 56 55 56 59 59 58 53 49 45 54 57 74 83 83 75 76 78 81 79 78 76 73 76 82 79 78 74 66 58 59 57 56 60 57 65 62 57 62 63 61 63 65 66
55 57 57 56 56 58 58 59 59 65 82 86 84 82 80 83 81 81 81 82 80 73 76 74 68 70 67 70 59 54 58 63 57 53 59 60 66 60 66 69 68 69 68 67
60 59 57 60 60 68 75 84 85 86 85 82 86 86 87 89 88 88 86 79 73 70 71 68 63 58 57 57 68 46 61 66 59 62 70 67 73 76 71 64 67 72 76 76
80 79 83 87 89 87 86 85 85 84 84 84 82 85 82 85 87 86 87 65 73 73 68 68 56 49 43 53 49 69 70 74 72 70 75 76 77 71 72 74 74 75 76 76
89 90 90 89 87 87 83 77 78 83 83 84 85 85 87 85 88 85 86 75 57 75 58 56 51 63 59 83 57 76 71 69 72 73 75 77 78 79 78 75 75 77 76 77
90 88 88 87 82 77 76 76 77 78 82 84 88 87 75 63 63 69 68 64 58 66 59 65 76 81 84 86 79 79 77 75 77 79 79 82 84 84 83 82 80 76 78 80
90 87 85 82 81 73 72 77 70 74 80 81 83 84 66 74 78 61 60 78 80 85 82 89 88 88 97 81 81 79 77 77 78 81 77 79 86 86 85 85 83 79 80 81
86 85 82 77 62 55 58 58 56 56 59 50 53 56 64 61 83 74 80 78 81 83 86 93 84 80 79 80 79 79 79 78 79 79 82 82 83 87 85 86 85 86 81 78
74 64 57 49 43 44 45 45 52 56 55 71 73 79 83 80 71 72 77 83 75 78 78 83 85 82 80 77 78 77 77 74 77 78 80 79 82 80 84 84 83 83 85 86
58 56 48 45 42 45 48 48 65 72 77 79 74 83 75 80 83 75 86 83 83 82 82 82 82 80 81 82 78 77 76 76 76 76 79 80 80 81 81 81 81 82 82 85

GFSNGP_sfc_rhum_117.txt.gz
RH
54 39 36 47 55 52 80 64 89 88 83 88 90 80 85 85 81 78 79 78 83 88 89 86 90 96 96 96 97 98 98 92 93 89 87 89 91 91 91 92 91 92 93 93
79 48 52 76 70 60 85 86 86 88 87 84 74 75 80 84 85 82 82 85 84 82 75 82 88 96 92 95 97 96 95 97 95 94 89 89 90 90 89 90 90 90 92 92
84 48 60 89 94 84 92 74 85 83 80 78 80 75 86 83 84 86 84 79 76 81 84 84 85 78 84 89 96 95 95 97 97 98 97 96 93 93 93 94 91 93 93 91
75 70 85 96 74 70 83 79 67 68 80 72 69 80 84 82 85 78 77 77 76 76 75 77 66 69 64 60 69 83 85 92 96 95 96 98 97 96 96 96 95 95 95 94
84 66 79 81 79 76 88 81 71 65 61 61 63 63 81 77 74 83 82 78 82 76 71 74 71 66 66 67 68 78 85 86 87 91 95 97 97 98 98 98 96 97 95 94
74 66 69 67 53 48 52 93 57 54 60 62 59 86 89 80 76 76 79 80 81 80 70 83 87 66 86 84 83 90 90 87 81 82 88 92 94 96 97 99 99 98 96 97
70 73 73 50 49 53 93 93 61 55 60 68 77 88 89 79 76 73 78 79 78 82 88 90 89 83 87 87 91 90 87 86 86 86 87 87 87 90 93 91 89 91 92 92
64 80 83 56 56 76 85 69 64 73 96 94 91 88 84 80 78 76 74 75 78 84 89 88 85 86 88 90 85 84 83 84 86 84 89 86 86 87 87 86 87 86 87 86
72 79 74 69 77 66 62 71 74 77 77 86 86 85 82 76 66 68 74 74 72 82 84 85 82 83 86 85 81 81 81 82 83 85 84 84 86 88 84 85 83 86 82 86
71 76 73 72 63 59 62 73 69 68 73 75 85 82 78 70 62 59 56 60 54 57 74 81 80 77 78 77 77 77 80 80 82 80 86 85 77 79 83 86 86 87 87 88
81 75 69 75 73 75 74 72 73 72 73 78 74 75 72 73 66 58 55 54 50 51 49 54 58 66 70 71 70 75 75 79 80 68 79 77 80 74 73 82 77 82 86 86
95 72 71 86 80 72 77 78 70 68 66 61 62 60 49 40 31 26 29 28 28 30 32 32 38 45 42 45 48 57 58 56 62 61 62 62 62 64 65 67 66 66 65 72
81 64 76 83 75 64 69 68 60 57 51 47 34 28 26 26 27 31 23 26 29 31 32 35 42 49 48 47 49 52 53 51 52 55 56 60 61 62 66 66 59 62 63 63
62 70 88 78 81 65 60 57 54 44 38 32 28 27 27 27 27 26 27 27 29 34 38 41 49 62 60 56 59 66 62 64 62 64 66 67 67 67 67 70 73 72 62 63
63 51 60 58 58 58 52 50 50 46 39 33 30 30 30 38 50 58 50 38 40 47 53 51 56 66 55 53 51 64 64 64 70 71 70 68 68 67 65 66 67 66 63 63
56 50 53 59 57 55 52 49 48 44 37 34 32 34 38 41 43 43 42 46 47 65 68 80 68 75 68 68 61 62 67 64 64 66 66 66 65 64 62 63 63 63 64 76
58 63 60 60 58 54 50 46 44 40 34 33 37 39 42 50 56 61 61 57 72 73 67 76 80 81 81 77 71 61 64 62 58 59 59 60 61 60 58 60 60 59 62 72
48 54 54 54 53 52 51 45 40 37 42 44 64 77 79 74 68 73 75 73 76 77 73 76 76 74 73 72 67 54 56 56 52 55 55 62 59 54 59 61 59 61 63 63
49 52 54 52 51 52 51 49 49 57 77 84 86 82 80 80 78 77 76 77 80 74 81 70 66 64 63 66 61 49 56 61 56 50 58 58 65 60 66 67 65 67 67 68
57 56 54 54 55 66 72 81 83 85 84 80 83 85 84 86 82 81 78 76 76 71 66 64 63 52 51 45 53 47 60 66 59 62 69 66 75 75 74 65 69 74 81 80
84 82 82 83 84 85 88 85 87 86 82 82 79 82 81 84 83 82 81 63 78 67 61 57 53 48 41 51 50 66 70 73 70 70 74 79 84 80 77 79 79 80 81 77
90 87 89 89 90 91 87 82 79 82 81 81 83 84 85 84 83 79 80 78 56 66 54 52 48 68 60 76 57 75 68 66 68 73 75 76 79 79 78 77 77 78 80 83
88 87 88 88 87 86 80 80 79 77 81 83 83 81 71 60 58 63 70 63 52 68 54 66 79 76 74 81 79 78 75 73 76 75 81 80 77 80 80 78 78 75 78 77
88 86 86 82 81 75 73 74 68 72 76 77 80 80 64 70 73 53 54 72 71 74 73 89 82 77 79 81 80 79 76 77 80 85 76 75 81 76 77 78 77 77 79 80
92 84 85 81 65 55 54 53 53 54 60 49 54 59 57 54 80 77 72 74 79 71 89 81 71 73 77 78 80 78 79 77 78 77 81 79 76 81 78 78 82 85 80 79
80 72 65 55 46 44 45 44 48 50 49 64 67 74 79 74 66 64 70 67 66 65 74 80 80 76 78 75 75 75 73 70 73 73 74 74 78 77 80 78 78 79 83 80
63 62 54 46 41 44 46 45 60 66 68 76 74 80 77 78 76 68 74 79 79 74 77 77 78 77 77 75 73 71 71 72 72 72 74 76 76 78 80 80 80 79 83 82

GFSNGP_sfc_rhum_123.txt.gz
RH
67 52 46 58 53 47 72 64 86 89 96 91 82 84 87 83 80 82 86 89 93 93 93 93 89 87 88 93 96 97 95 96 98 99 97 97 93 88 85 89 88 85 86 88
88 57 58 70 64 58 66 68 89 93 98 80 81 84 90 90 88 89 90 81 83 81 76 80 76 81 76 81 90 90 96 96 96 96 98 98 97 96 92 90 93 95 91 91
90 61 67 84 70 73 68 66 74 90 86 83 89 90 92 90 89 89 81 81 77 79 82 87 84 79 81 80 81 80 85 85 88 95 96 97 98 96 96 96 94 95 96 94
93 85 96 78 73 68 82 73 75 83 85 77 84 92 93 92 84 80 80 81 80 84 83 88 83 79 76 75 75 79 76 84 81 86 89 90 92 94 97 96 96 96 96 96
98 93 77 82 72 78 84 84 71 80 80 81 84 81 94 76 80 90 93 91 94 92 88 87 88 83 80 82 79 80 78 77 77 78 87 89 91 91 91 92 92 93 93 92
94 95 93 95 60 56 63 95 74 77 80 84 80 95 97 81 81 86 93 95 96 94 88 90 91 86 93 88 88 89 90 83 77 72 78 85 90 90 90 88 91 88 89 89
91 93 85 62 56 56 94 87 73 73 77 84 92 97 92 85 86 87 94 93 94 94 96 96 93 92 89 92 90 92 88 88 84 82 80 82 80 84 86 87 85 86 87 88
89 95 92 65 60 80 85 86 79 72 80 91 96 93 91 91 91 90 92 93 92 95 94 93 91 93 89 86 92 89 92 90 89 87 87 85 85 84 83 84 86 86 86 84
92 94 84 82 87 80 82 93 93 89 89 91 93 91 90 88 85 87 88 93 94 91 92 91 88 88 84 87 90 87 86 91 93 89 90 89 88 87 84 83 85 87 87 88
88 93 88 79 75 80 84 90 86 84 85 83 89 89 88 83 79 78 78 85 87 87 88 85 88 84 86 82 84 90 84 90 90 93 93 93 91 88 87 86 86 89 90 90
91 87 80 77 86 87 84 82 83 80 81 84 82 84 83 85 83 81 79 82 78 76 75 80 80 85 84 79 81 82 91 85 90 84 90 97 97 94 88 84 77 82 88 90
94 84 84 93 89 81 83 84 80 81 80 76 76 78 72 74 69 65 64 50 47 54 58 61 65 72 70 68 69 78 81 80 82 85 86 84 87 85 81 77 75 67 60 73
92 79 90 92 85 75 78 77 72 73 70 74 67 63 58 47 44 43 41 45 50 57 62 67 70 72 74 77 70 69 77 79 79 76 78 84 84 84 91 86 67 71 64 59
86 87 95 88 94 77 71 68 65 62 60 58 55 38 39 43 41 46 52 56 59 60 64 71 77 88 83 82 82 82 81 88 95 87 92 90 94 91 89 89 89 94 74 66
82 70 82 81 80 83 64 61 63 64 60 54 44 44 47 55 66 74 68 58 61 74 79 79 85 94 85 78 80 86 74 88 93 94 93 91 93 92 93 93 94 95 97 86
75 72 74 87 87 87 69 58 56 56 50 47 51 58 62 64 66 72 78 76 82 94 95 97 90 94 90 87 88 91 93 86 90 95 92 91 93 92 92 93 94 94 95 94
79 86 81 83 92 91 75 55 50 47 47 49 56 56 60 67 74 83 92 89 91 94 95 96 97 97 94 94 94 97 96 91 90 95 94 95 96 95 94 95 95 95 96 97
67 72 72 73 86 96 87 62 53 50 52 57 73 80 84 84 87 93 94 94 96 98 96 92 93 95 91 90 90 89 95 92 91 94 95 92 94 94 94 96 95 96 97 97
63 70 72 76 87 95 85 65 66 74 80 79 80 87 91 92 92 95 98 98 99 99 96 93 91 85 86 85 81 86 96 95 92 95 95 96 96 95 97 96 96 97 97 97
85 91 95 98 98 95 89 87 88 88 85 85 91 93 95 97 95 98 97 96 96 95 91 87 86 88 84 73 86 88 96 96 95 96 98 96 98 97 97 97 95 95 98 98
94 98 98 97 97 96 93 90 88 89 90 87 88 93 94 95 94 94 97 93 92 90 85 79 85 88 81 90 83 98 97 97 98 98 99 100 98 97 98 98 98 99 96 96
96 96 96 96 96 96 96 91 90 91 89 91 93 94 94 96 96 96 95 94 88 89 86 88 89 92 91 96 96 97 96 95 97 98 98 99 100 97 96 100 100 97 94 92
96 96 96 96 96 96 96 96 92 87 90 91 93 92 88 82 82 92 92 84 83 89 92 96 96 92 94 100 98 97 97 97 99 99 100 100 99 100 100 99 97 94 95 96
96 96 96 96 96 95 95 94 87 92 94 93 93 88 88 92 95 89 86 89 91 96 95 95 93 94 99 96 96 98 99 100 100 100 98 100 100 100 99 99 95 98 100 95
94 95 95 94 91 88 83 78 80 79 78 69 70 75 82 96 92 96 95 94 93 96 95 91 92 97 96 98 99 99 100 100 98 100 100 100 100 100 100 97 99 99 98 97
92 92 87 80 78 74 71 68 77 79 76 89 94 96 97 92 88 91 94 92 93 95 97 98 98 97 96 98 98 98 98 98 96 98 100 100 99 100 99 98 100 100 99 98
94 90 81 75 67 66 68 71 83 85 90 89 89 96 93 94 96 90 93 94 94 97 96 98 97 95 97 96 96 96 97 98 98 99 100 100 100 100 99 100 100 98 97 99

GFSNGP_sfc_rhum_126.txt.gz
RH
70 57 55 62 63 56 71 57 92 83 87 90 87 85 79 92 91 88 90 89 83 90 91 86 85 85 83 85 90 94 96 95 96 96 97 98 95 94 94 94 95 91 88 88
86 57 66 74 62 59 68 70 85 92 95 88 89 90 92 90 91 91 80 77 76 75 78 81 84 85 81 83 86 80 87 88 90 92 94 96 97 95 95 95 95 95 96 95
88 64 73 89 79 75 80 67 60 78 78 93 94 85 92 92 90 86 77 76 75 80 81 87 89 81 85 83 82 78 82 82 84 87 90 91 87 91 92 94 94 96 95 96
94 84 95 74 76 74 80 79 80 87 90 81 90 95 95 91 85 76 71 76 77 84 85 88 84 82 76 76 78 78 77 81 79 84 87 88 88 88 90 90 92 93 94 92
92 94 75 82 75 83 86 83 78 89 88 90 90 87 94 79 80 89 92 91 97 96 89 89 87 83 80 82 81 82 81 81 77 80 83 85 90 92 90 90 90 91 91 91
98 97 95 80 77 64 68 92 79 78 86 88 90 94 97 82 78 84 93 95 96 95 88 92 92 86 92 92 88 93 93 85 78 75 82 85 87 89 88 88 89 87 89 89
86 88 81 70 62 63 88 80 80 78 82 87 93 96 93 84 82 84 91 92 94 95 97 97 94 92 92 92 93 94 94 86 86 84 84 85 83 84 86 86 86 86 86 87
94 96 86 72 63 84 83 91 82 80 84 90 98 94 89 89 91 90 92 91 92 93 95 93 92 94 93 94 94 92 94 95 92 92 91 91 87 85 83 85 87 87 86 84
85 81 84 86 85 83 84 89 87 82 85 91 94 92 90 92 88 89 90 93 94 93 92 93 92 92 90 94 93 90 90 94 98 95 93 94 92 89 86 84 86 88 87 88
87 93 92 85 88 88 88 92 88 85 85 84 89 89 91 88 82 82 87 90 88 84 90 92 92 89 92 90 91 92 89 90 90 93 95 97 94 89 86 83 84 89 91 93
93 90 84 80 90 94 94 90 88 84 82 84 82 86 85 88 85 82 83 84 80 80 80 88 88 90 92 87 87 90 89 90 91 88 91 89 93 96 92 80 72 80 89 88
91 83 83 91 94 90 92 92 85 83 81 73 73 78 72 73 66 65 68 59 61 64 68 73 75 80 80 72 74 85 82 80 87 87 89 88 92 86 72 67 63 61 63 70
93 85 89 94 91 84 88 86 79 77 72 76 66 63 59 61 62 58 51 54 61 66 68 73 76 82 84 82 67 70 84 68 75 76 79 85 86 90 96 87 70 63 63 61
92 91 96 92 95 85 81 76 71 68 67 66 61 55 52 49 48 51 58 62 63 67 68 73 82 92 90 87 81 86 88 94 93 95 95 95 98 96 97 94 95 97 80 71
88 77 87 87 81 77 70 70 73 73 70 65 52 46 46 52 64 73 70 59 60 71 76 81 84 94 87 77 79 88 83 96 96 96 97 97 97 96 96 96 98 98 97 94
82 88 88 85 85 88 91 91 80 70 64 49 48 47 53 62 71 76 78 77 76 85 93 97 88 96 89 83 87 91 94 94 94 94 94 95 96 94 96 96 96 97 96 98
92 99 93 90 89 94 94 93 81 60 49 50 55 57 61 72 79 88 93 89 91 95 95 96 96 98 96 94 94 98 97 94 95 96 94 96 97 96 97 98 98 97 98 99
76 80 84 82 88 95 97 96 62 51 54 61 74 79 82 80 85 93 96 96 97 98 97 95 95 95 94 93 92 93 97 96 95 97 96 96 97 94 96 96 96 97 98 97
76 83 85 85 92 96 97 88 64 69 84 84 82 83 83 86 86 92 96 95 97 96 90 95 94 94 88 89 85 94 96 96 96 95 95 97 96 96 97 98 99 98 98 96
82 86 91 98 99 98 97 95 92 93 91 86 87 86 90 90 90 94 95 94 93 93 91 90 90 92 88 80 95 94 95 97 96 99 98 98 99 100 100 99 98 100 100 99
96 92 96 97 97 97 96 96 95 96 92 87 85 87 88 92 92 94 98 97 92 93 87 84 89 96 84 92 96 99 97 98 99 100 100 100 100 100 100 100 100 100 99 99
98 97 97 96 96 96 96 96 95 95 95 92 90 90 89 93 95 96 95 88 80 90 87 90 89 89 90 100 93 97 98 97 98 98 100 100 100 100 100 100 100 98 99 100
97 97 96 96 96 96 96 96 96 95 92 88 89 88 83 80 81 90 96 87 82 92 91 94 92 98 96 96 98 99 99 99 100 100 100 100 100 100 100 100 100 100 100 100
97 97 96 96 96 95 95 96 95 95 88 88 88 87 79 86 92 80 86 90 92 95 95 94 98 95 97 98 98 99 100 100 100 100 100 100 100 100 100 100 100 100 100 100
96 96 96 96 94 94 93 92 92 86 80 73 72 74 84 77 94 97 93 93 96 91 92 94 93 92 96 98 99 100 100 100 100 100 100 100 100 100 100 100 100 100 100 100
94 93 90 83 83 83 85 87 84 82 80 90 95 96 98 93 92 91 92 96 95 93 93 96 95 95 98 99 100 100 100 99 100 100 100 100 100 100 100 100 100 100 100 100
94 91 88 85 77 75 76 77 86 88 89 87 89 98 96 96 96 92 94 96 96 96 96 96 95 96 98 98 99 100 99 100 100 100 100 100 100 100 100 100 100 100 100 99